AVA150 SBEG-SBSV

Flight info

Callsign AVA150
Flight time 3h 23m
Altitude 35000
Route GIKVI DCT ASIMU UZ9 DORMU
Aircraft A320/M-SDE3FGHIRWY/LB1

Departure

Time 2026-04-27 17:57
Airport Eduardo Gomes International Airport (SBEG)

Arrival

Time 2026-04-27 21:20
Airport Deputado Luiz Eduardo Magalhães International Airport (SBSV)
Time Latitude Longitude Altitude Speed Heading
2026-04-27 17:41 -3.03278 -60.04574 272 ft 0 kts 352°
2026-04-27 17:49 -3.03299 -60.04572 271 ft 4 kts 358°
2026-04-27 17:50 -3.03325 -60.04573 271 ft 4 kts 14°
2026-04-27 17:50 -3.03352 -60.04593 274 ft 0 kts 84°
2026-04-27 17:52 -3.03350 -60.04570 271 ft 6 kts 85°
2026-04-27 17:53 -3.03338 -60.04543 271 ft 2 kts 346°
2026-04-27 17:53 -3.03352 -60.04602 271 ft 21 kts 262°
2026-04-27 17:53 -3.03394 -60.04786 271 ft 29 kts 242°
2026-04-27 17:53 -3.03530 -60.04928 271 ft 28 kts 225°
2026-04-27 17:54 -3.03607 -60.05107 275 ft 28 kts 254°
2026-04-27 17:54 -3.03659 -60.05298 271 ft 29 kts 258°
2026-04-27 17:54 -3.03691 -60.05494 271 ft 29 kts 269°
2026-04-27 17:54 -3.03690 -60.05694 271 ft 29 kts 270°
2026-04-27 17:55 -3.03691 -60.05896 271 ft 29 kts 270°
2026-04-27 17:55 -3.03693 -60.06097 271 ft 29 kts 260°
2026-04-27 17:55 -3.03819 -60.06161 271 ft 22 kts 153°
2026-04-27 17:55 -3.03856 -60.06034 273 ft 20 kts 90°
2026-04-27 17:56 -3.03857 -60.05813 272 ft 60 kts 90°
2026-04-27 17:56 -3.03859 -60.05178 271 ft 119 kts 90°
2026-04-27 17:56 -3.03862 -60.04187 275 ft 164 kts 90°
2026-04-27 17:56 -3.03875 -60.03002 716 ft 168 kts 90°
2026-04-27 17:57 -3.03877 -60.01829 1287 ft 170 kts 89°
2026-04-27 17:57 -3.03867 -60.00644 1880 ft 171 kts 88°
2026-04-27 17:57 -3.03877 -59.99389 2044 ft 192 kts 93°
2026-04-27 17:57 -3.04416 -59.98100 2138 ft 218 kts 133°
2026-04-27 17:58 -3.05661 -59.97124 2469 ft 236 kts 146°
2026-04-27 17:58 -3.07135 -59.96266 2835 ft 255 kts 150°
2026-04-27 17:58 -3.08732 -59.95395 3345 ft 266 kts 150°
2026-04-27 17:58 -3.10369 -59.94492 3978 ft 272 kts 149°
2026-04-27 17:59 -3.12019 -59.93541 4748 ft 275 kts 148°
2026-04-27 17:59 -3.13668 -59.92557 5469 ft 278 kts 147°
2026-04-27 17:59 -3.15333 -59.91534 6141 ft 282 kts 146°
2026-04-27 17:59 -3.17008 -59.90492 6816 ft 285 kts 146°
2026-04-27 18:00 -3.18696 -59.89437 7492 ft 287 kts 146°
2026-04-27 18:00 -3.20396 -59.88370 8160 ft 290 kts 146°
2026-04-27 18:00 -3.22088 -59.87305 8827 ft 293 kts 146°
2026-04-27 18:00 -3.23821 -59.86210 9499 ft 296 kts 146°
2026-04-27 18:01 -3.25573 -59.85105 10092 ft 302 kts 146°
2026-04-27 18:01 -3.27441 -59.83926 10222 ft 324 kts 146°
2026-04-27 18:01 -3.29412 -59.82684 10327 ft 345 kts 146°
2026-04-27 18:01 -3.31478 -59.81382 10666 ft 355 kts 146°
2026-04-27 18:02 -3.33584 -59.80055 11205 ft 359 kts 146°
2026-04-27 18:02 -3.35680 -59.78736 11758 ft 362 kts 146°
2026-04-27 18:02 -3.37824 -59.77388 12321 ft 365 kts 147°
2026-04-27 18:02 -3.39985 -59.76030 12871 ft 368 kts 147°
2026-04-27 18:03 -3.42162 -59.74659 13420 ft 371 kts 147°
2026-04-27 18:03 -3.44356 -59.73279 13933 ft 374 kts 147°
2026-04-27 18:03 -3.46563 -59.71886 14420 ft 376 kts 147°
2026-04-27 18:03 -3.48784 -59.70483 14912 ft 378 kts 146°
2026-04-27 18:04 -3.51013 -59.69075 15411 ft 380 kts 146°
2026-04-27 18:04 -3.53227 -59.67624 15900 ft 381 kts 141°
2026-04-27 18:04 -3.55232 -59.65890 16372 ft 382 kts 137°
2026-04-27 18:04 -3.57209 -59.64101 16831 ft 385 kts 137°
2026-04-27 18:05 -3.59202 -59.62301 17292 ft 387 kts 137°
2026-04-27 18:05 -3.61208 -59.60492 17758 ft 389 kts 137°
2026-04-27 18:05 -3.63225 -59.58674 18201 ft 392 kts 137°
2026-04-27 18:05 -3.65257 -59.56843 18603 ft 394 kts 137°
2026-04-27 18:06 -3.67300 -59.55002 19000 ft 396 kts 137°
2026-04-27 18:06 -3.69353 -59.53150 19391 ft 399 kts 137°
2026-04-27 18:06 -3.71416 -59.51287 19780 ft 401 kts 137°
2026-04-27 18:06 -3.73492 -59.49410 20166 ft 403 kts 136°
2026-04-27 18:07 -3.75581 -59.47520 20545 ft 406 kts 136°
2026-04-27 18:07 -3.77679 -59.45621 20923 ft 408 kts 136°
2026-04-27 18:07 -3.79788 -59.43713 21289 ft 410 kts 137°
2026-04-27 18:07 -3.81913 -59.41796 21649 ft 412 kts 137°
2026-04-27 18:08 -3.84053 -59.39867 22008 ft 415 kts 137°
2026-04-27 18:08 -3.86203 -59.37929 22357 ft 417 kts 137°
2026-04-27 18:08 -3.88361 -59.35980 22697 ft 419 kts 136°
2026-04-27 18:08 -3.90528 -59.34017 23027 ft 421 kts 136°
2026-04-27 18:09 -3.92707 -59.32045 23348 ft 423 kts 136°
2026-04-27 18:09 -3.94899 -59.30061 23623 ft 426 kts 137°
2026-04-27 18:09 -3.97103 -59.28067 23877 ft 428 kts 137°
2026-04-27 18:09 -3.99317 -59.26066 24144 ft 430 kts 137°
2026-04-27 18:10 -4.01511 -59.24083 24400 ft 431 kts 137°
2026-04-27 18:10 -4.03739 -59.22069 24653 ft 433 kts 137°
2026-04-27 18:10 -4.05979 -59.20048 24907 ft 434 kts 137°
2026-04-27 18:10 -4.08229 -59.18016 25163 ft 436 kts 137°
2026-04-27 18:11 -4.10477 -59.15980 25407 ft 437 kts 137°
2026-04-27 18:11 -4.12736 -59.13932 25649 ft 438 kts 137°
2026-04-27 18:11 -4.15000 -59.11878 25890 ft 440 kts 137°
2026-04-27 18:11 -4.17271 -59.09818 26129 ft 441 kts 137°
2026-04-27 18:12 -4.19551 -59.07755 26365 ft 443 kts 137°
2026-04-27 18:12 -4.21841 -59.05683 26599 ft 444 kts 137°
2026-04-27 18:12 -4.24132 -59.03609 26825 ft 445 kts 137°
2026-04-27 18:12 -4.26436 -59.01523 27061 ft 446 kts 137°
2026-04-27 18:13 -4.28741 -58.99435 27290 ft 447 kts 137°
2026-04-27 18:13 -4.31051 -58.97339 27516 ft 449 kts 137°
2026-04-27 18:13 -4.33369 -58.95240 27731 ft 450 kts 137°
2026-04-27 18:13 -4.35696 -58.93138 27944 ft 451 kts 137°
2026-04-27 18:14 -4.38030 -58.91032 28154 ft 452 kts 137°
2026-04-27 18:14 -4.40373 -58.88922 28352 ft 453 kts 137°
2026-04-27 18:14 -4.42720 -58.86804 28547 ft 455 kts 137°
2026-04-27 18:14 -4.45070 -58.84679 28739 ft 456 kts 137°
2026-04-27 18:15 -4.47427 -58.82546 28925 ft 457 kts 136°
2026-04-27 18:15 -4.49785 -58.80408 29110 ft 458 kts 136°
2026-04-27 18:15 -4.52131 -58.78247 29279 ft 458 kts 133°
2026-04-27 18:15 -4.54183 -58.75809 29449 ft 458 kts 124°
2026-04-27 18:16 -4.55796 -58.73064 29597 ft 458 kts 114°
2026-04-27 18:16 -4.56928 -58.70081 29760 ft 458 kts 105°
2026-04-27 18:16 -4.57711 -58.66991 29964 ft 457 kts 104°
2026-04-27 18:16 -4.58470 -58.63938 30167 ft 457 kts 104°
2026-04-27 18:17 -4.59239 -58.60854 30358 ft 456 kts 104°
2026-04-27 18:17 -4.60009 -58.57771 30542 ft 456 kts 104°
2026-04-27 18:17 -4.60779 -58.54692 30723 ft 455 kts 104°
2026-04-27 18:17 -4.61548 -58.51615 30904 ft 455 kts 104°
2026-04-27 18:18 -4.62319 -58.48539 31089 ft 455 kts 104°
2026-04-27 18:18 -4.63086 -58.45467 31291 ft 454 kts 104°
2026-04-27 18:18 -4.63849 -58.42401 31505 ft 453 kts 104°
2026-04-27 18:18 -4.64611 -58.39335 31696 ft 453 kts 104°
2026-04-27 18:19 -4.65372 -58.36277 31891 ft 452 kts 104°
2026-04-27 18:19 -4.66132 -58.33220 32079 ft 452 kts 104°
2026-04-27 18:19 -4.66896 -58.30167 32271 ft 452 kts 104°
2026-04-27 18:19 -4.67661 -58.27112 32456 ft 451 kts 104°
2026-04-27 18:20 -4.68424 -58.24063 32636 ft 451 kts 104°
2026-04-27 18:20 -4.69186 -58.21012 32818 ft 451 kts 104°
2026-04-27 18:20 -4.69943 -58.17965 32996 ft 450 kts 103°
2026-04-27 18:20 -4.70698 -58.14919 33194 ft 450 kts 103°
2026-04-27 18:21 -4.71452 -58.11877 33386 ft 450 kts 103°
2026-04-27 18:21 -4.72205 -58.08837 33572 ft 450 kts 103°
2026-04-27 18:21 -4.72963 -58.05795 33750 ft 449 kts 104°
2026-04-27 18:21 -4.73722 -58.02757 33938 ft 449 kts 103°
2026-04-27 18:22 -4.74478 -57.99722 34093 ft 449 kts 103°
2026-04-27 18:22 -4.75235 -57.96690 34251 ft 448 kts 103°
2026-04-27 18:22 -4.75969 -57.93753 34398 ft 448 kts 103°
2026-04-27 18:22 -4.76743 -57.90636 34556 ft 448 kts 103°
2026-04-27 18:23 -4.77492 -57.87606 34702 ft 448 kts 103°
2026-04-27 18:23 -4.78240 -57.84579 34856 ft 447 kts 103°
2026-04-27 18:23 -4.79732 -57.78574 34922 ft 447 kts 103°
2026-04-27 18:24 -4.81236 -57.72534 34926 ft 446 kts 103°
2026-04-27 18:24 -4.82741 -57.66499 34924 ft 446 kts 103°
2026-04-27 18:25 -4.84240 -57.60450 34926 ft 448 kts 103°
2026-04-27 18:25 -4.85740 -57.54384 34927 ft 448 kts 103°
2026-04-27 18:26 -4.87245 -57.48315 34927 ft 449 kts 103°
2026-04-27 18:26 -4.88754 -57.42242 34933 ft 449 kts 103°
2026-04-27 18:27 -4.90270 -57.36127 34937 ft 449 kts 103°
2026-04-27 18:27 -4.91761 -57.30088 34936 ft 449 kts 103°
2026-04-27 18:28 -4.93272 -57.24005 34935 ft 450 kts 103°
2026-04-27 18:28 -4.94776 -57.17919 34936 ft 450 kts 103°
2026-04-27 18:29 -4.96278 -57.11830 34942 ft 450 kts 103°
2026-04-27 18:29 -4.97784 -57.05741 34937 ft 450 kts 103°
2026-04-27 18:30 -4.99290 -56.99646 34934 ft 450 kts 103°
2026-04-27 18:30 -5.00795 -56.93544 34933 ft 451 kts 103°
2026-04-27 18:31 -5.02291 -56.87442 34935 ft 451 kts 103°
2026-04-27 18:31 -5.03802 -56.81340 34937 ft 451 kts 103°
2026-04-27 18:32 -5.05321 -56.75244 34940 ft 450 kts 103°
2026-04-27 18:32 -5.06824 -56.69144 34940 ft 450 kts 103°
2026-04-27 18:33 -5.08328 -56.63047 34936 ft 450 kts 103°
2026-04-27 18:33 -5.09828 -56.56949 34939 ft 450 kts 104°
2026-04-27 18:34 -5.11320 -56.50888 34936 ft 450 kts 103°
2026-04-27 18:34 -5.12815 -56.44788 34934 ft 450 kts 104°
2026-04-27 18:35 -5.14309 -56.38686 34930 ft 450 kts 104°
2026-04-27 18:35 -5.15818 -56.32585 34929 ft 450 kts 104°
2026-04-27 18:36 -5.17326 -56.26486 34935 ft 451 kts 103°
2026-04-27 18:36 -5.18822 -56.20384 34935 ft 450 kts 103°
2026-04-27 18:37 -5.20079 -56.15273 34932 ft 450 kts 104°
2026-04-27 18:37 -5.21574 -56.09214 34930 ft 450 kts 103°
2026-04-27 18:38 -5.23087 -56.03074 34930 ft 450 kts 103°
2026-04-27 18:38 -5.24572 -55.96972 34928 ft 450 kts 103°
2026-04-27 18:39 -5.26049 -55.90909 34927 ft 450 kts 103°
2026-04-27 18:39 -5.27549 -55.84809 34930 ft 450 kts 103°
2026-04-27 18:40 -5.29044 -55.78710 34927 ft 450 kts 103°
2026-04-27 18:40 -5.30537 -55.72608 34929 ft 450 kts 103°
2026-04-27 18:41 -5.32034 -55.66505 34931 ft 450 kts 103°
2026-04-27 18:41 -5.33531 -55.60409 34930 ft 450 kts 103°
2026-04-27 18:42 -5.34776 -55.55296 34926 ft 450 kts 103°
2026-04-27 18:42 -5.36508 -55.48203 34921 ft 451 kts 103°
2026-04-27 18:43 -5.38006 -55.42095 34927 ft 451 kts 103°
2026-04-27 18:43 -5.39502 -55.35983 34924 ft 451 kts 103°
2026-04-27 18:44 -5.40987 -55.29864 34921 ft 451 kts 103°
2026-04-27 18:44 -5.42484 -55.23747 34927 ft 451 kts 104°
2026-04-27 18:45 -5.43973 -55.17671 34929 ft 451 kts 103°
2026-04-27 18:45 -5.45457 -55.11548 34925 ft 452 kts 103°
2026-04-27 18:46 -5.46941 -55.05421 34932 ft 452 kts 103°
2026-04-27 18:46 -5.48433 -54.99295 34932 ft 452 kts 103°
2026-04-27 18:47 -5.49941 -54.93128 34934 ft 452 kts 103°
2026-04-27 18:47 -5.51438 -54.86998 34937 ft 452 kts 103°
2026-04-27 18:48 -5.52934 -54.80869 34934 ft 452 kts 103°
2026-04-27 18:48 -5.54424 -54.74740 34932 ft 452 kts 103°
2026-04-27 18:49 -5.55905 -54.68609 34938 ft 452 kts 103°
2026-04-27 18:49 -5.57391 -54.62481 34934 ft 452 kts 103°
2026-04-27 18:50 -5.58882 -54.56363 34929 ft 451 kts 103°
2026-04-27 18:50 -5.60364 -54.50282 34928 ft 451 kts 103°
2026-04-27 18:51 -5.61852 -54.44160 34929 ft 451 kts 103°
2026-04-27 18:51 -5.63332 -54.38039 34929 ft 451 kts 103°
2026-04-27 18:52 -5.64828 -54.31876 34932 ft 451 kts 103°
2026-04-27 18:53 -5.67308 -54.22770 34928 ft 452 kts 112°
2026-04-27 18:53 -5.69800 -54.17021 34926 ft 452 kts 113°
2026-04-27 18:54 -5.72306 -54.11229 34928 ft 452 kts 112°
2026-04-27 18:54 -5.74800 -54.05432 34927 ft 452 kts 113°
2026-04-27 18:55 -5.77300 -53.99635 34931 ft 452 kts 113°
2026-04-27 18:55 -5.79802 -53.93845 34927 ft 452 kts 112°
2026-04-27 18:56 -5.82311 -53.88057 34927 ft 452 kts 112°
2026-04-27 18:56 -5.84815 -53.82266 34923 ft 452 kts 112°
2026-04-27 18:57 -5.87311 -53.76479 34923 ft 452 kts 112°
2026-04-27 18:57 -5.89797 -53.70682 34924 ft 452 kts 113°
2026-04-27 18:58 -5.92295 -53.64887 34927 ft 452 kts 112°
2026-04-27 18:58 -5.94794 -53.59088 34927 ft 452 kts 112°
2026-04-27 18:59 -5.97287 -53.53286 34932 ft 452 kts 112°
2026-04-27 18:59 -5.99781 -53.47485 34931 ft 453 kts 113°
2026-04-27 19:00 -6.02286 -53.41688 34936 ft 452 kts 113°
2026-04-27 19:00 -6.04781 -53.35887 34935 ft 452 kts 112°
2026-04-27 19:01 -6.07269 -53.30086 34937 ft 452 kts 112°
2026-04-27 19:01 -6.09755 -53.24284 34935 ft 452 kts 112°
2026-04-27 19:02 -6.12230 -53.18524 34929 ft 452 kts 112°
2026-04-27 19:02 -6.14727 -53.12726 34928 ft 452 kts 112°
2026-04-27 19:03 -6.17219 -53.06924 34928 ft 452 kts 112°
2026-04-27 19:03 -6.19708 -53.01117 34930 ft 452 kts 112°
2026-04-27 19:04 -6.22197 -52.95308 34923 ft 453 kts 112°
2026-04-27 19:04 -6.24687 -52.89495 34929 ft 453 kts 112°
2026-04-27 19:05 -6.27186 -52.83683 34931 ft 453 kts 112°
2026-04-27 19:05 -6.29690 -52.77864 34935 ft 453 kts 112°
2026-04-27 19:06 -6.32172 -52.72038 34931 ft 453 kts 112°
2026-04-27 19:06 -6.34651 -52.66214 34935 ft 453 kts 112°
2026-04-27 19:07 -6.37148 -52.60400 34931 ft 453 kts 112°
2026-04-27 19:07 -6.39649 -52.54587 34930 ft 453 kts 112°
2026-04-27 19:08 -6.42115 -52.48809 34934 ft 453 kts 113°
2026-04-27 19:08 -6.44595 -52.42998 34935 ft 452 kts 112°
2026-04-27 19:09 -6.47086 -52.37185 34936 ft 452 kts 112°
2026-04-27 19:09 -6.49569 -52.31375 34937 ft 452 kts 112°
2026-04-27 19:10 -6.52047 -52.25565 34934 ft 452 kts 112°
2026-04-27 19:10 -6.54532 -52.19756 34937 ft 452 kts 112°
2026-04-27 19:11 -6.57019 -52.13945 34940 ft 452 kts 112°
2026-04-27 19:11 -6.59501 -52.08130 34940 ft 452 kts 112°
2026-04-27 19:12 -6.61975 -52.02320 34938 ft 452 kts 112°
2026-04-27 19:12 -6.64448 -51.96510 34933 ft 452 kts 112°
2026-04-27 19:13 -6.66926 -51.90704 34938 ft 452 kts 112°
2026-04-27 19:13 -6.69405 -51.84892 34935 ft 452 kts 112°
2026-04-27 19:14 -6.71879 -51.79078 34936 ft 452 kts 112°
2026-04-27 19:14 -6.74354 -51.73267 34934 ft 452 kts 112°
2026-04-27 19:15 -6.76831 -51.67458 34938 ft 452 kts 112°
2026-04-27 19:15 -6.79305 -51.61646 34934 ft 452 kts 112°
2026-04-27 19:16 -6.81772 -51.55834 34935 ft 452 kts 112°
2026-04-27 19:16 -6.84246 -51.50021 34931 ft 452 kts 112°
2026-04-27 19:17 -6.86700 -51.44245 34928 ft 452 kts 112°
2026-04-27 19:17 -6.89171 -51.38430 34925 ft 452 kts 112°
2026-04-27 19:18 -6.91634 -51.32611 34925 ft 452 kts 112°
2026-04-27 19:18 -6.94098 -51.26801 34930 ft 451 kts 112°
2026-04-27 19:19 -6.96565 -51.21001 34935 ft 450 kts 112°
2026-04-27 19:19 -6.99032 -51.15209 34935 ft 450 kts 112°
2026-04-27 19:20 -7.01486 -51.09413 34933 ft 450 kts 112°
2026-04-27 19:20 -7.03938 -51.03620 34933 ft 450 kts 112°
2026-04-27 19:21 -7.06397 -50.97832 34935 ft 450 kts 112°
2026-04-27 19:21 -7.08848 -50.92037 34935 ft 450 kts 112°
2026-04-27 19:22 -7.11303 -50.86242 34934 ft 450 kts 112°
2026-04-27 19:22 -7.13759 -50.80442 34935 ft 451 kts 112°
2026-04-27 19:23 -7.16199 -50.74674 34933 ft 451 kts 112°
2026-04-27 19:23 -7.18653 -50.68859 34935 ft 451 kts 112°
2026-04-27 19:24 -7.21113 -50.63047 34936 ft 451 kts 112°
2026-04-27 19:24 -7.23574 -50.57233 34944 ft 451 kts 112°
2026-04-27 19:25 -7.26025 -50.51414 34950 ft 451 kts 112°
2026-04-27 19:25 -7.28083 -50.46538 34951 ft 451 kts 112°
2026-04-27 19:26 -7.30520 -50.40766 34943 ft 451 kts 112°
2026-04-27 19:26 -7.32967 -50.34956 34947 ft 450 kts 112°
2026-04-27 19:27 -7.35414 -50.29155 34946 ft 450 kts 112°
2026-04-27 19:27 -7.37865 -50.23359 34942 ft 450 kts 112°
2026-04-27 19:28 -7.40308 -50.17558 34941 ft 450 kts 112°
2026-04-27 19:28 -7.42744 -50.11761 34936 ft 449 kts 112°
2026-04-27 19:29 -7.45185 -50.05969 34939 ft 449 kts 112°
2026-04-27 19:29 -7.47626 -50.00177 34934 ft 449 kts 112°
2026-04-27 19:30 -7.50057 -49.94378 34936 ft 449 kts 112°
2026-04-27 19:30 -7.52490 -49.88584 34937 ft 449 kts 112°
2026-04-27 19:31 -7.54926 -49.82800 34930 ft 448 kts 112°
2026-04-27 19:31 -7.57349 -49.77017 34926 ft 448 kts 112°
2026-04-27 19:32 -7.59776 -49.71236 34925 ft 448 kts 112°
2026-04-27 19:32 -7.62205 -49.65449 34924 ft 448 kts 112°
2026-04-27 19:33 -7.64630 -49.59668 34921 ft 448 kts 112°
2026-04-27 19:33 -7.67050 -49.53885 34920 ft 448 kts 112°
2026-04-27 19:34 -7.69477 -49.48103 34917 ft 448 kts 112°
2026-04-27 19:34 -7.71888 -49.42354 34918 ft 448 kts 112°
2026-04-27 19:35 -7.74312 -49.36563 34918 ft 448 kts 112°
2026-04-27 19:35 -7.76735 -49.30769 34923 ft 448 kts 112°
2026-04-27 19:36 -7.79155 -49.24974 34916 ft 449 kts 112°
2026-04-27 19:36 -7.81580 -49.19174 34918 ft 449 kts 112°
2026-04-27 19:37 -7.84014 -49.13374 34920 ft 449 kts 112°
2026-04-27 19:37 -7.86439 -49.07573 34917 ft 449 kts 112°
2026-04-27 19:38 -7.88864 -49.01766 34917 ft 449 kts 112°
2026-04-27 19:38 -7.91290 -48.95956 34918 ft 450 kts 112°
2026-04-27 19:39 -7.93715 -48.90142 34919 ft 449 kts 112°
2026-04-27 19:39 -7.96136 -48.84335 34918 ft 449 kts 112°
2026-04-27 19:40 -7.98558 -48.78524 34921 ft 449 kts 112°
2026-04-27 19:40 -8.00978 -48.72710 34918 ft 449 kts 112°
2026-04-27 19:41 -8.03400 -48.66894 34919 ft 450 kts 112°
2026-04-27 19:41 -8.05821 -48.61078 34920 ft 450 kts 112°
2026-04-27 19:42 -8.08243 -48.55260 34918 ft 450 kts 112°
2026-04-27 19:42 -8.10660 -48.49443 34919 ft 449 kts 112°
2026-04-27 19:43 -8.13058 -48.43666 34924 ft 449 kts 112°
2026-04-27 19:43 -8.15491 -48.37807 34921 ft 449 kts 112°
2026-04-27 19:44 -8.17885 -48.32031 34918 ft 449 kts 112°
2026-04-27 19:44 -8.20299 -48.26215 34912 ft 449 kts 112°
2026-04-27 19:45 -8.22717 -48.20403 34915 ft 449 kts 112°
2026-04-27 19:45 -8.25133 -48.14593 34916 ft 449 kts 112°
2026-04-27 19:46 -8.27538 -48.08780 34911 ft 449 kts 112°
2026-04-27 19:46 -8.29946 -48.02972 34910 ft 448 kts 112°
2026-04-27 19:47 -8.32349 -47.97167 34912 ft 448 kts 112°
2026-04-27 19:47 -8.34752 -47.91358 34911 ft 448 kts 112°
2026-04-27 19:48 -8.37161 -47.85556 34910 ft 448 kts 112°
2026-04-27 19:48 -8.39570 -47.79753 34910 ft 448 kts 112°
2026-04-27 19:49 -8.41970 -47.73949 34906 ft 448 kts 112°
2026-04-27 19:49 -8.44372 -47.68143 34905 ft 448 kts 112°
2026-04-27 19:50 -8.46773 -47.62344 34906 ft 448 kts 112°
2026-04-27 19:50 -8.49174 -47.56541 34905 ft 447 kts 112°
2026-04-27 19:51 -8.51577 -47.50742 34900 ft 447 kts 112°
2026-04-27 19:51 -8.53974 -47.44941 34896 ft 448 kts 112°
2026-04-27 19:52 -8.56374 -47.39139 34895 ft 448 kts 112°
2026-04-27 19:52 -8.58781 -47.33341 34893 ft 448 kts 111°
2026-04-27 19:53 -8.62377 -47.24626 34892 ft 448 kts 111°
2026-04-27 19:53 -8.64767 -47.18811 34892 ft 448 kts 111°
2026-04-27 19:54 -8.67161 -47.12998 34889 ft 448 kts 111°
2026-04-27 19:54 -8.69558 -47.07176 34890 ft 449 kts 111°
2026-04-27 19:55 -8.71947 -47.01390 34891 ft 449 kts 111°
2026-04-27 19:55 -8.74347 -46.95566 34895 ft 449 kts 111°
2026-04-27 19:56 -8.76743 -46.89733 34896 ft 449 kts 111°
2026-04-27 19:56 -8.79142 -46.83897 34897 ft 450 kts 111°
2026-04-27 19:57 -8.81544 -46.78060 34902 ft 450 kts 111°
2026-04-27 19:57 -8.83944 -46.72220 34908 ft 450 kts 111°
2026-04-27 19:58 -8.86341 -46.66382 34908 ft 450 kts 111°
2026-04-27 19:58 -8.88725 -46.60536 34909 ft 450 kts 111°
2026-04-27 19:59 -8.91095 -46.54685 34911 ft 450 kts 111°
2026-04-27 19:59 -8.93463 -46.48833 34911 ft 450 kts 111°
2026-04-27 20:00 -8.95836 -46.42982 34912 ft 450 kts 111°
2026-04-27 20:00 -8.98221 -46.37130 34914 ft 450 kts 111°
2026-04-27 20:01 -9.00603 -46.31276 34913 ft 450 kts 111°
2026-04-27 20:01 -9.02974 -46.25413 34912 ft 450 kts 111°
2026-04-27 20:02 -9.05351 -46.19550 34915 ft 450 kts 111°
2026-04-27 20:02 -9.07728 -46.13687 34916 ft 450 kts 110°
2026-04-27 20:03 -9.10100 -46.07822 34917 ft 450 kts 110°
2026-04-27 20:03 -9.12474 -46.01957 34918 ft 450 kts 111°
2026-04-27 20:04 -9.14862 -45.96097 34916 ft 450 kts 111°
2026-04-27 20:04 -9.16856 -45.91228 34918 ft 451 kts 111°
2026-04-27 20:05 -9.19634 -45.84408 34924 ft 451 kts 110°
2026-04-27 20:05 -9.22015 -45.78540 34924 ft 451 kts 110°
2026-04-27 20:06 -9.24390 -45.72670 34926 ft 451 kts 110°
2026-04-27 20:06 -9.26770 -45.66800 34926 ft 451 kts 110°
2026-04-27 20:07 -9.29153 -45.60934 34929 ft 451 kts 110°
2026-04-27 20:07 -9.31547 -45.55068 34930 ft 451 kts 110°
2026-04-27 20:08 -9.33927 -45.49190 34931 ft 451 kts 110°
2026-04-27 20:08 -9.36304 -45.43310 34933 ft 451 kts 110°
2026-04-27 20:09 -9.38681 -45.37427 34938 ft 452 kts 110°
2026-04-27 20:09 -9.41065 -45.31537 34938 ft 452 kts 110°
2026-04-27 20:10 -9.43447 -45.25644 34941 ft 452 kts 110°
2026-04-27 20:10 -9.45814 -45.19785 34940 ft 452 kts 110°
2026-04-27 20:11 -9.48195 -45.13890 34943 ft 452 kts 110°
2026-04-27 20:11 -9.50592 -45.07956 34943 ft 452 kts 110°
2026-04-27 20:12 -9.52574 -45.03061 34943 ft 452 kts 110°
2026-04-27 20:12 -9.55343 -44.96210 34937 ft 452 kts 110°
2026-04-27 20:13 -9.57711 -44.90317 34930 ft 452 kts 110°
2026-04-27 20:13 -9.59699 -44.85376 34930 ft 452 kts 110°
2026-04-27 20:14 -9.62077 -44.79478 34934 ft 452 kts 110°
2026-04-27 20:14 -9.64457 -44.73581 34927 ft 452 kts 110°
2026-04-27 20:15 -9.66829 -44.67678 34924 ft 452 kts 110°
2026-04-27 20:15 -9.69203 -44.61772 34925 ft 453 kts 110°
2026-04-27 20:16 -9.71576 -44.55858 34922 ft 453 kts 110°
2026-04-27 20:16 -9.73952 -44.49933 34925 ft 454 kts 110°
2026-04-27 20:17 -9.76327 -44.44010 34928 ft 454 kts 110°
2026-04-27 20:17 -9.78709 -44.38086 34929 ft 454 kts 110°
2026-04-27 20:18 -9.81086 -44.32159 34928 ft 454 kts 110°
2026-04-27 20:18 -9.83439 -44.26266 34931 ft 454 kts 110°
2026-04-27 20:19 -9.85827 -44.20297 34936 ft 454 kts 110°
2026-04-27 20:19 -9.88202 -44.14364 34936 ft 454 kts 110°
2026-04-27 20:20 -9.90577 -44.08429 34937 ft 454 kts 110°
2026-04-27 20:20 -9.92948 -44.02489 34939 ft 454 kts 110°
2026-04-27 20:21 -9.95302 -43.96594 34940 ft 454 kts 110°
2026-04-27 20:21 -9.97668 -43.90653 34941 ft 454 kts 110°
2026-04-27 20:22 -10.00033 -43.84714 34943 ft 454 kts 110°
2026-04-27 20:22 -10.02396 -43.78774 34944 ft 454 kts 111°
2026-04-27 20:23 -10.04761 -43.72835 34948 ft 454 kts 111°
2026-04-27 20:23 -10.07123 -43.66898 34951 ft 454 kts 110°
2026-04-27 20:24 -10.09489 -43.60966 34951 ft 454 kts 111°
2026-04-27 20:24 -10.11853 -43.55033 34953 ft 453 kts 111°
2026-04-27 20:25 -10.14212 -43.49112 34954 ft 453 kts 111°
2026-04-27 20:25 -10.16576 -43.43186 34953 ft 453 kts 111°
2026-04-27 20:26 -10.18921 -43.37257 34952 ft 452 kts 110°
2026-04-27 20:26 -10.21271 -43.31336 34952 ft 452 kts 110°
2026-04-27 20:27 -10.23629 -43.25422 34951 ft 452 kts 111°
2026-04-27 20:27 -10.25975 -43.19500 34953 ft 452 kts 110°
2026-04-27 20:28 -10.28316 -43.13583 34950 ft 452 kts 110°
2026-04-27 20:28 -10.30259 -43.08663 34949 ft 452 kts 110°
2026-04-27 20:29 -10.32993 -43.01744 34939 ft 452 kts 110°
2026-04-27 20:29 -10.35327 -42.95826 34942 ft 451 kts 110°
2026-04-27 20:30 -10.37674 -42.89911 34945 ft 451 kts 111°
2026-04-27 20:30 -10.40021 -42.84000 34942 ft 451 kts 110°
2026-04-27 20:31 -10.42350 -42.78086 34945 ft 451 kts 110°
2026-04-27 20:31 -10.44665 -42.72211 34944 ft 451 kts 110°
2026-04-27 20:32 -10.46999 -42.66301 34943 ft 451 kts 110°
2026-04-27 20:32 -10.49322 -42.60385 34942 ft 451 kts 110°
2026-04-27 20:33 -10.51647 -42.54476 34942 ft 450 kts 110°
2026-04-27 20:33 -10.53976 -42.48568 34943 ft 450 kts 110°
2026-04-27 20:34 -10.56295 -42.42656 34944 ft 450 kts 110°
2026-04-27 20:34 -10.58613 -42.36751 34948 ft 450 kts 111°
2026-04-27 20:35 -10.60937 -42.30852 34948 ft 449 kts 110°
2026-04-27 20:35 -10.63251 -42.24952 34950 ft 449 kts 110°
2026-04-27 20:36 -10.65561 -42.19045 34947 ft 450 kts 111°
2026-04-27 20:36 -10.67872 -42.13145 34952 ft 449 kts 110°
2026-04-27 20:37 -10.70190 -42.07247 34954 ft 449 kts 110°
2026-04-27 20:37 -10.72496 -42.01351 34960 ft 449 kts 110°
2026-04-27 20:38 -10.74795 -41.95449 34961 ft 448 kts 110°
2026-04-27 20:38 -10.77097 -41.89557 34967 ft 448 kts 110°
2026-04-27 20:39 -10.79401 -41.83671 34978 ft 448 kts 111°
2026-04-27 20:39 -10.81699 -41.77785 34979 ft 448 kts 110°
2026-04-27 20:40 -10.83982 -41.71902 34988 ft 447 kts 110°
2026-04-27 20:40 -10.86254 -41.66057 34993 ft 447 kts 111°
2026-04-27 20:41 -10.88558 -41.60187 35005 ft 447 kts 110°
2026-04-27 20:41 -10.90848 -41.54311 34999 ft 447 kts 111°
2026-04-27 20:42 -10.93132 -41.48438 35006 ft 446 kts 111°
2026-04-27 20:42 -10.95413 -41.42565 35006 ft 446 kts 111°
2026-04-27 20:43 -10.97689 -41.36692 35006 ft 446 kts 111°
2026-04-27 20:43 -10.99972 -41.30823 35020 ft 446 kts 111°
2026-04-27 20:44 -11.02252 -41.24953 35020 ft 446 kts 110°
2026-04-27 20:44 -11.04529 -41.19086 35025 ft 446 kts 111°
2026-04-27 20:45 -11.06814 -41.13221 35024 ft 446 kts 111°
2026-04-27 20:45 -11.09069 -41.07396 35028 ft 445 kts 110°
2026-04-27 20:46 -11.11327 -41.01518 35026 ft 446 kts 111°
2026-04-27 20:46 -11.13593 -40.95650 35029 ft 445 kts 111°
2026-04-27 20:47 -11.15870 -40.89782 35026 ft 445 kts 111°
2026-04-27 20:47 -11.18132 -40.83917 35027 ft 445 kts 111°
2026-04-27 20:48 -11.20016 -40.79038 35031 ft 445 kts 111°
2026-04-27 20:48 -11.22675 -40.72181 35026 ft 445 kts 113°
2026-04-27 20:49 -11.25486 -40.66561 35026 ft 446 kts 117°
2026-04-27 20:49 -11.28368 -40.60965 35022 ft 446 kts 117°
2026-04-27 20:50 -11.31248 -40.55363 35023 ft 446 kts 117°
2026-04-27 20:50 -11.34123 -40.49756 35023 ft 447 kts 117°
2026-04-27 20:51 -11.37001 -40.44143 35019 ft 447 kts 117°
2026-04-27 20:51 -11.39878 -40.38527 35014 ft 447 kts 117°
2026-04-27 20:52 -11.42749 -40.32904 35015 ft 447 kts 117°
2026-04-27 20:52 -11.45628 -40.27280 35013 ft 447 kts 117°
2026-04-27 20:53 -11.48504 -40.21657 35012 ft 447 kts 117°
2026-04-27 20:53 -11.51382 -40.16032 35013 ft 447 kts 117°
2026-04-27 20:54 -11.55722 -40.07605 35009 ft 448 kts 117°
2026-04-27 20:55 -11.58655 -40.02054 35004 ft 448 kts 123°
2026-04-27 20:55 -11.62774 -39.97326 35006 ft 448 kts 139°
2026-04-27 20:56 -11.67516 -39.93209 35004 ft 448 kts 139°
2026-04-27 20:56 -11.72251 -39.89071 35005 ft 448 kts 139°
2026-04-27 20:57 -11.76984 -39.84926 35000 ft 448 kts 139°
2026-04-27 20:57 -11.81714 -39.80780 34994 ft 449 kts 139°
2026-04-27 20:57 -11.84082 -39.78700 34762 ft 449 kts 139°
2026-04-27 20:58 -11.86454 -39.76619 34533 ft 449 kts 139°
2026-04-27 20:58 -11.88823 -39.74543 34275 ft 449 kts 139°
2026-04-27 20:58 -11.91209 -39.72453 33298 ft 455 kts 139°
2026-04-27 20:58 -11.93613 -39.70352 32706 ft 452 kts 139°
2026-04-27 20:59 -11.95989 -39.68276 32138 ft 448 kts 139°
2026-04-27 20:59 -11.98347 -39.66216 31550 ft 445 kts 138°
2026-04-27 20:59 -12.00686 -39.64167 30975 ft 442 kts 138°
2026-04-27 20:59 -12.03015 -39.62125 30404 ft 440 kts 137°
2026-04-27 21:00 -12.05328 -39.60095 29803 ft 438 kts 137°
2026-04-27 21:00 -12.07628 -39.58076 29241 ft 434 kts 137°
2026-04-27 21:00 -12.09909 -39.56079 28689 ft 430 kts 137°
2026-04-27 21:00 -12.12168 -39.54097 28135 ft 426 kts 137°
2026-04-27 21:01 -12.14406 -39.52132 27604 ft 422 kts 137°
2026-04-27 21:01 -12.16595 -39.50207 27081 ft 419 kts 137°
2026-04-27 21:01 -12.18826 -39.48244 26558 ft 416 kts 137°
2026-04-27 21:01 -12.20981 -39.46353 26068 ft 412 kts 137°
2026-04-27 21:02 -12.22448 -39.45068 25737 ft 410 kts 137°
2026-04-27 21:02 -12.24604 -39.43179 25248 ft 407 kts 137°
2026-04-27 21:02 -12.26746 -39.41301 24771 ft 404 kts 136°
2026-04-27 21:02 -12.29556 -39.38832 24147 ft 400 kts 136°
2026-04-27 21:03 -12.31661 -39.36980 23677 ft 398 kts 136°
2026-04-27 21:03 -12.33756 -39.35135 23153 ft 396 kts 136°
2026-04-27 21:03 -12.35160 -39.33900 22835 ft 394 kts 136°
2026-04-27 21:03 -12.37895 -39.31496 22219 ft 389 kts 136°
2026-04-27 21:04 -12.39281 -39.30279 21896 ft 387 kts 137°
2026-04-27 21:04 -12.41319 -39.28488 21435 ft 385 kts 137°
2026-04-27 21:04 -12.43341 -39.26708 20944 ft 383 kts 137°
2026-04-27 21:04 -12.45357 -39.24936 20461 ft 381 kts 137°
2026-04-27 21:05 -12.47339 -39.23202 19983 ft 380 kts 137°
2026-04-27 21:05 -12.49351 -39.21449 19489 ft 379 kts 137°
2026-04-27 21:05 -12.51356 -39.19706 19001 ft 378 kts 138°
2026-04-27 21:05 -12.53358 -39.17967 18512 ft 377 kts 138°
2026-04-27 21:06 -12.55358 -39.16228 17985 ft 377 kts 138°
2026-04-27 21:06 -12.57347 -39.14497 17495 ft 374 kts 138°
2026-04-27 21:06 -12.59322 -39.12774 17020 ft 372 kts 138°
2026-04-27 21:06 -12.61282 -39.11060 16548 ft 370 kts 138°
2026-04-27 21:07 -12.63230 -39.09353 16084 ft 368 kts 138°
2026-04-27 21:07 -12.65171 -39.07655 15619 ft 366 kts 138°
2026-04-27 21:07 -12.67104 -39.05964 15158 ft 365 kts 138°
2026-04-27 21:07 -12.69032 -39.04279 14695 ft 364 kts 138°
2026-04-27 21:08 -12.70959 -39.02597 14234 ft 363 kts 138°
2026-04-27 21:08 -12.72881 -39.00920 13757 ft 364 kts 139°
2026-04-27 21:08 -12.74804 -38.99241 13251 ft 362 kts 139°
2026-04-27 21:08 -12.76714 -38.97570 12770 ft 360 kts 139°
2026-04-27 21:09 -12.78614 -38.95906 12295 ft 358 kts 139°
2026-04-27 21:09 -12.80498 -38.94255 11822 ft 355 kts 139°
2026-04-27 21:09 -12.82364 -38.92617 11348 ft 353 kts 139°
2026-04-27 21:09 -12.84217 -38.90992 10895 ft 350 kts 139°
2026-04-27 21:10 -12.85931 -38.89249 10463 ft 346 kts 128°
2026-04-27 21:10 -12.87140 -38.87156 10214 ft 336 kts 112°
2026-04-27 21:10 -12.87924 -38.84951 10096 ft 323 kts 109°
2026-04-27 21:10 -12.88666 -38.82824 9981 ft 311 kts 110°
2026-04-27 21:11 -12.89386 -38.80773 9795 ft 302 kts 110°
2026-04-27 21:11 -12.90095 -38.78758 9456 ft 299 kts 110°
2026-04-27 21:11 -12.90795 -38.76759 8952 ft 300 kts 110°
2026-04-27 21:11 -12.91512 -38.74706 8237 ft 310 kts 110°
2026-04-27 21:12 -12.92237 -38.72624 7775 ft 309 kts 110°
2026-04-27 21:12 -12.92957 -38.70555 7356 ft 307 kts 110°
2026-04-27 21:12 -12.93667 -38.68523 6945 ft 297 kts 110°
2026-04-27 21:12 -12.94346 -38.66578 6565 ft 284 kts 110°
2026-04-27 21:13 -12.94996 -38.64713 6176 ft 271 kts 110°
2026-04-27 21:13 -12.95613 -38.62931 5816 ft 260 kts 109°
2026-04-27 21:13 -12.96176 -38.61240 5478 ft 248 kts 103°
2026-04-27 21:13 -12.96292 -38.59528 5159 ft 237 kts 83°
2026-04-27 21:14 -12.95986 -38.57900 4838 ft 228 kts 78°
2026-04-27 21:14 -12.95672 -38.56334 4529 ft 220 kts 79°
2026-04-27 21:14 -12.95370 -38.54821 4188 ft 215 kts 79°
2026-04-27 21:14 -12.95070 -38.53319 3781 ft 214 kts 79°
2026-04-27 21:15 -12.94777 -38.51850 3482 ft 207 kts 79°
2026-04-27 21:15 -12.94491 -38.50419 3242 ft 203 kts 79°
2026-04-27 21:15 -12.94209 -38.49005 2971 ft 204 kts 79°
2026-04-27 21:15 -12.93930 -38.47610 2694 ft 193 kts 79°
2026-04-27 21:16 -12.93669 -38.46310 2450 ft 179 kts 80°
2026-04-27 21:16 -12.93429 -38.45109 2249 ft 164 kts 81°
2026-04-27 21:16 -12.93211 -38.44023 2039 ft 149 kts 81°
2026-04-27 21:16 -12.93009 -38.43008 1823 ft 143 kts 81°
2026-04-27 21:17 -12.92812 -38.42022 1637 ft 140 kts 82°
2026-04-27 21:17 -12.92617 -38.41047 1453 ft 140 kts 82°
2026-04-27 21:17 -12.92422 -38.40072 1272 ft 141 kts 81°
2026-04-27 21:17 -12.92224 -38.39089 1113 ft 140 kts 82°
2026-04-27 21:18 -12.92031 -38.38121 908 ft 138 kts 80°
2026-04-27 21:18 -12.91837 -38.37150 739 ft 139 kts 82°
2026-04-27 21:18 -12.91639 -38.36166 589 ft 141 kts 80°
2026-04-27 21:18 -12.91442 -38.35180 381 ft 143 kts 80°
2026-04-27 21:19 -12.91245 -38.34189 211 ft 140 kts 79°
2026-04-27 21:19 -12.91051 -38.33220 45 ft 135 kts 80°
2026-04-27 21:19 -12.90889 -38.32409 39 ft 84 kts 78°
2026-04-27 21:20 -12.90773 -38.31836 44 ft 23 kts 79°
2026-04-27 21:20 -12.90830 -38.31717 44 ft 21 kts 165°
2026-04-27 21:20 -12.90923 -38.31790 44 ft 21 kts 257°
2026-04-27 21:20 -12.90953 -38.31936 42 ft 21 kts 258°
2026-04-27 21:21 -12.90983 -38.32089 41 ft 23 kts 258°
2026-04-27 21:21 -12.91017 -38.32254 36 ft 25 kts 258°
2026-04-27 21:21 -12.91053 -38.32434 37 ft 27 kts 258°
2026-04-27 21:21 -12.91093 -38.32632 34 ft 30 kts 258°
2026-04-27 21:22 -12.91135 -38.32848 31 ft 32 kts 259°
2026-04-27 21:22 -12.91182 -38.33079 28 ft 32 kts 257°
2026-04-27 21:22 -12.91244 -38.33183 27 ft 13 kts 193°
2026-04-27 21:22 -12.91280 -38.33257 29 ft 12 kts 258°
2026-04-27 21:23 -12.91339 -38.33269 28 ft 1 kts 167°